Regional Weather Roundup
Issued by NWS Upton, NY

Current Version | Previous Version | Graphics & Text | Print | Product List | Glossary Off
Versions: 1 2 3 4 5 6 7 8 9 10 11 12 13 14 15 16 17 18 19 20 21 22 23 24 25 26 27

000
ASUS41 KOKX 221005
RWROKX

REGIONAL WEATHER ROUNDUP
NATIONAL WEATHER SERVICE NEW YORK NY
600 AM EDT TUE APR 22 2014

NOTE: "FAIR" INDICATES FEW OR NO CLOUDS BELOW 12,000 FEET WITH NO
SIGNIFICANT WEATHER AND/OR OBSTRUCTIONS TO VISIBILITY.

NYZ071-072-176-178-NJZ106-104-221100-
NEW YORK CITY METRO AREA


CITY           SKY/WX    TMP DP  RH WIND       PRES   REMARKS
CENTRAL PARK   MOCLDY    52  44  74 CALM      29.79F
LAGUARDIA APRT MOCLDY    51  43  74 SW6       29.76F
KENNEDY INTL   MOCLDY    47  43  86 SW6       29.79F
NEWARK/LIBERTY MOCLDY    49  44  83 S5        29.77F
TETERBORO      MOCLDY    50  43  77 S6        29.76F
$$

NYZ177-179-078>081-221100-
LONG ISLAND NEW YORK

CITY           SKY/WX    TMP DP  RH WIND       PRES   REMARKS
FARMINGDALE    CLEAR     45  42  89 S5        29.78F
ISLIP          MOCLDY    45  41  86 SW3       29.77F
SHIRLEY        CLEAR     45  42  89 SW5       29.80S
WESTHAMPTON    PTCLDY    33  29  85 CALM      29.80F
MONTAUK POINT    N/A     47  42  83 S3        29.80F
$$

NYZ052-065-067-221100-
HUDSON VALLEY

CITY           SKY/WX    TMP DP  RH WIND       PRES   REMARKS
WHITE PLAINS   PTCLDY    47  42  83 CALM      29.75F
NEWBURGH       PTCLDY    50  39  66 CALM      29.74F
MONTGOMERY     MOCLDY    45  38  76 CALM      29.72F
POUGHKEEPSIE   MOCLDY    45  39  79 CALM      29.73F
ALBANY         CLOUDY    52  36  54 S8        29.70F
$$

NJZ001-105-106-008-010-013-015-019>022-104-221100-
NEW JERSEY

CITY           SKY/WX    TMP DP  RH WIND       PRES   REMARKS
NEWARK/LIBERTY MOCLDY    49  44  83 S5        29.77F
TETERBORO      MOCLDY    50  43  77 S6        29.76F
CALDWELL       MOCLDY    46  43  89 CALM      29.77F
MORRISTOWN     PTCLDY    41  39  93 CALM      29.77S
SOMERVILLE     PTCLDY    39  35  86 CALM      29.76F
LINDEN         FAIR      49  45  85 CALM      29.79F
SUSSEX         MOCLDY    43  33  68 SW3       29.74F
ANDOVER          N/A     44  40  85 CALM      29.74F
TRENTON        PTCLDY    45  43  93 CALM      29.77F
MILLVILLE      CLEAR     38  37  97 CALM      29.79F
ATLANTIC CITY  PTCLDY    38  36  92 CALM      29.79F
WRIGHTSTOWN    PTCLDY    41  41  98 S2        29.77F
TOMS RIVER     CLEAR     37  34  87 CALM      29.79F
BELMAR         CLEAR     45  37  76 SW6       29.78F
$$

PAZ047>061-062-071-221100-
EASTERN PENNSYLVANIA

CITY           SKY/WX    TMP DP  RH WIND       PRES   REMARKS
PHILADELPHIA   MOCLDY    48  43  82 S6        29.79F
ALLENTOWN      PTCLDY    43  34  70 NW5       29.76F
SCRANTON       CLOUDY    50  28  42 S7        29.71F
$$

CTZ002-004>006-009-010-012-RIZ004-006-007-MAZ004-011-015-221100-
SOUTHERN NEW ENGLAND
 IN CT

CITY           SKY/WX    TMP DP  RH WIND       PRES   REMARKS
BRADLEY INTL   PTCLDY    44  39  82 S7        29.75F
HARTFORD       PTCLDY    46  41  82 S8        29.76F
DANBURY        MOCLDY    40  38  93 CALM      29.77F
WTRBRY/OXFORD  MOCLDY    45  37  76 S7        29.78F
BRIDGEPORT     PTCLDY    46  43  89 CALM      29.78F
MERIDEN        PTCLDY    42  40  92 CALM      29.77F
NEW HAVEN      PTCLDY    41  38  89 CALM      29.78F
CHESTER        FAIR      45  43  93 SW6       29.78S
GROTON         PTCLDY    38  38 100 CALM      29.78F FOG
WILLIMANTIC    PTCLDY    38  36  92 CALM      29.78S

 IN RI

CITY           SKY/WX    TMP DP  RH WIND       PRES   REMARKS
PROVIDENCE     MOCLDY    43  39  86 CALM      29.78F
BLOCK ISLAND   CLEAR     45  39  81 SW10      29.78F
WESTERLY       PTCLDY    39  37  92 CALM      29.79F

 IN MA

CITY           SKY/WX    TMP DP  RH WIND       PRES   REMARKS
BOSTON         MOCLDY    47  40  76 SW10      29.75F
WORCESTER      PTCLDY    47  39  74 W14       29.73F
WESTFIELD      MOCLDY    44  39  82 S3        29.74F
PROVINCETOWN   PTCLDY    45  43  93 MISG      29.78S
NANTUCKET      CLEAR     43  40  89 CALM      29.79F
$$

ANZ330-335-338-340-345-350-353-355-221100-
COASTAL MARINE OBSERVATIONS


STATION/POSITION TIME  SKY/WX   TEMP    WIND        PRES    VSBY  WAVE
                                AIR SEA DIR/SP/G                  HT/PER
                 (UTC)          (F)     (DEG/KT/KT) (MB)    (MI)  (FT/S)
NY HARB ENTRANCE 1000            47 45  VRB  6/  8  1008.6
4S FIRE IS       0900               46                N/A           4/ 9
23SW MTP         1000            45 43  210/  6/  6 1008.6          4/ 9
HUDSON CANYON    0900            46 45  210/  4/  4 1009.5          5/ 8
EXECUTION ROCKS  1000            48 45  210/  6/  6   N/A
WESTERN LI SOUND 1000            47        CALM       N/A           0
CENTRAL LI SOUND 0900            44 42  180/  4/  4   N/A           0
EASTERN LI SOUND NOT AVBL
ROBBINS REEF     1000            50     240/  5/  6   N/A
$$


>>>>>>>>>>>>>>>>>>>>>>>>>>>> KEY <<<<<<<<<<<<<<<<<<<<<<<<<<<
>                                                          <
>     SKY/WX - SKY CONDITION/PRESENT WEATHER               <
>     TMP    - TEMPERATURE IN FAHRENHEIT                   <
>     DP     - DEWPOINT IN FAHRENHEIT                      <
>     RH     - RELATIVE HUMIDITY IN PERCENT                <
>     WIND   - DIRECTION AND SPEED IN MPH                  <
>     PRES   - MEAN SEA LEVEL PRESSURE IN INCHES OF HG     <
>     WCI    - WIND CHILL INDEX                            <
>     VSB    - VISIBILITY IN MILES                         <
>     HX     - HEAT INDEX                                  <
>     TC     - TEMPERATURE IN CELSIUS                      <
>     VRB    - VARIABLE WIND DIRECTION                     <
>                                                          <
>>>>>>>>>>>>>>>>>>>>>>>>>>>> KEY <<<<<<<<<<<<<<<<<<<<<<<<<<<





USA.gov is the U.S. government's official web portal to all federal, state and local government web resources and services.